User: anonymous   Login
Location: Columbia
(38.9520°N, 92.3340°W)
Time: 01:44:18
(UTC-06:00)
Language:

Cosmos 1603 - Orbit

View from above orbital plane
View from above orbital plane
View from above satellite
View from above satellite

Ground track
Ground track

The orbit data is extracted from the following two-line orbital elements,

1 15333U 84106A   17056.29721771  .00000047  00000-0  49492-4 0  9992
2 15333  71.0271 326.6700 0018900  11.4364 348.7184 14.14044878672445
Epoch (UTC): 25 February 2017 07:07:59
Eccentricity: 0.0018900
inclination: 71.0271°
perigee height: 832 km
apogee height: 859 km
right ascension of ascending node: 326.6700°
argument of perigee: 11.4364°
revolutions per day: 14.14044878
mean anomaly at epoch: 348.7184°
orbit number at epoch: 67244

The dashed part of the orbit path shows where the satellite is in the earth's shadow,  

DLR